Weather History for Kamloops, BC

Change the Weather History Date:

Monday, July 22, 2013

  Actual Average Record
Temperature  
Mean Temperature 78 °F -  
Max Temperature 93 °F 83 °F 102 °F (2006)
Min Temperature 64 °F 57 °F 51 °F (2011)
Cooling Degree Days 14    
Growing Degree Days 28 (Base 50)    
Moisture  
Dew Point 49 °F    
Average Humidity 36    
Maximum Humidity 68    
Minimum Humidity 13    
Precipitation  
Precipitation 0.00 in - - ()
Sea Level Pressure  
Sea Level Pressure 29.81 in    
Wind  
Wind Speed 6 mph ()    
Max Wind Speed 18 mph    
Max Gust Speed 24 mph    
Averages and records for this station are not official NWS values.
T = Trace of Precipitation, MM = Missing Value Source: Averaged Metar Reports

Daily Weather History Graph

Daily Weather History Graph

Search for Another Location

Airport:

Trip Planner

Search our weather history database for the weather conditions in past years. The results will help you decide how hot, cold, wet, or windy it might be!

Date:

Astronomy

Jul. 22, 2013 Rise Set
Actual Time 5:15 AM PDT 9:00 PM PDT
Civil Twilight 4:33 AM PDT 9:41 PM PDT
Nautical Twilight 3:36 AM PDT 10:38 PM PDT
Astronomical Twilight 2:04 AM PDT 12:06 AM PDT
Moon 8:37 PM PDT (7/22) 5:25 AM PDT (7/22)
Length of Visible Light 17h 08m
Length of Day
15h 45m
Full, 100% of the Moon is Illuminated
Jul 22
Full
Jul 29
Last Quarter
Aug 6
New
Aug 14
First Quarter
Aug 20
Full

Hourly Weather History & Observations

Time (PDT) Temp. Dew Point Humidity Pressure Visibility Wind Dir Wind Speed Gust Speed Precip Events Conditions
12:00 AM 75.2 °F 51.8 °F 44% 29.70 in 40.0 mi East 6.9 mph - N/A   Partly Cloudy
1:00 AM 73.4 °F 51.8 °F 47% 29.73 in 40.0 mi East 4.6 mph - N/A   Clear
2:00 AM 69.8 °F 53.6 °F 56% 29.74 in 40.0 mi SE 3.5 mph - N/A   Clear
3:00 AM 68.0 °F 51.8 °F 56% 29.77 in 40.0 mi Calm Calm - N/A   Partly Cloudy
4:00 AM 66.2 °F 53.6 °F 64% 29.79 in 40.0 mi WSW 3.5 mph - N/A   Partly Cloudy
5:00 AM 67 °F 55 °F 56% 29.81 in 37 mi SW 3.5 mph - -   Scattered Clouds
5:00 AM 66.2 °F 55.4 °F 68% 29.81 in 40.0 mi WSW 3.5 mph - N/A   Partly Cloudy
6:00 AM 68.0 °F 53.6 °F 60% 29.82 in 40.0 mi WSW 9.2 mph - N/A   Partly Cloudy
7:00 AM 71.6 °F 51.8 °F 50% 29.83 in 40.0 mi WNW 16.1 mph 24.2 mph N/A   Partly Cloudy
8:00 AM 73.4 °F 51.8 °F 47% 29.85 in 40.0 mi West 18.4 mph - N/A   Clear
9:00 AM 77.0 °F 51.8 °F 41% 29.86 in 40.0 mi West 15.0 mph - N/A   Clear
10:00 AM 80.6 °F 50.0 °F 34% 29.85 in 40.0 mi West 13.8 mph - N/A   Clear
11:00 AM 83 °F 50 °F 21% 29.85 in 37 mi West 15.0 mph - -   Scattered Clouds
11:00 AM 82.4 °F 50.0 °F 32% 29.85 in 40.0 mi West 16.1 mph - N/A   Clear
12:00 PM 84.2 °F 50.0 °F 30% 29.84 in 40.0 mi West 13.8 mph - N/A   Clear
1:00 PM 87.8 °F 46.4 °F 24% 29.83 in 40.0 mi West 6.9 mph - N/A   Partly Cloudy
2:00 PM 89.6 °F 46.4 °F 22% 29.82 in 40.0 mi SW 4.6 mph - N/A   Partly Cloudy
3:00 PM 91.4 °F 48.2 °F 23% 29.81 in 40.0 mi West 9.2 mph - N/A   Partly Cloudy
4:00 PM 91.4 °F 46.4 °F 21% 29.80 in 40.0 mi WNW 2.3 mph - N/A   Scattered Clouds
5:00 PM 90 °F 45 °F 13% 29.79 in 37 mi South 2.3 mph - -   Partly Cloudy
5:00 PM 89.6 °F 44.6 °F 21% 29.79 in 40.0 mi South 2.3 mph - N/A   Mostly Cloudy
6:00 PM 91.4 °F 44.6 °F 20% 29.78 in 40.0 mi SSW 3.5 mph - N/A   Mostly Cloudy
7:00 PM 91.4 °F 44.6 °F 20% 29.78 in 40.0 mi West 2.3 mph - N/A   Mostly Cloudy
8:00 PM 89.6 °F 44.6 °F 21% 29.79 in 40.0 mi NNE 12.7 mph - N/A   Mostly Cloudy
9:00 PM 86.0 °F 44.6 °F 23% 29.81 in 40.0 mi NNE 6.9 mph - N/A   Mostly Cloudy
10:00 PM 82.4 °F 44.6 °F 26% 29.84 in 40.0 mi ENE 4.6 mph - N/A   Scattered Clouds
11:00 PM 79 °F 48 °F 24% 29.86 in 37 mi ESE 9.2 mph - -   Scattered Clouds
11:00 PM 78.8 °F 48.2 °F 34% 29.86 in 40.0 mi ESE 6.9 mph - N/A   Partly Cloudy